Location: Lane
(33.5226°N, 79.8788°W)
Time: 23:13:06
(UTC+00:00)

Vanguard 2 Rocket - Pass Details

Date: 03 October 2022
Orbit: 555 x 3321 km, 32.9° (Epoch: 03 December)

Event Time Altitude Azimuth Distance (km) Brightness Sun altitude
Exits shadow 08:36:42 19° 128° (SE) 1,666 8.5 -33.4°
Drops below altitude 10° 08:37:54 10° 123° (ESE) 2,100 9.2 -33.2°
Sets 08:39:52 0° 118° (ESE) 2,875 10.0 -32.8°
